Regional Weather Roundup
Issued by NWS

Home | Current Version | Previous Version | Text Only | Print | Product List | Glossary Off
Versions: 1 2 3 4 5 6 7 8 9 10 11 12 13 14 15 16 17 18 19 20 21 22 23 24 25 26 27 28 29 30 31 32 33 34 35 36 37 38 39 40 41 42 43 44 45 46 47 48 49 50

000
ASUS43 KIND 070009
RWRIN

WEATHER ROUNDUP FOR INDIANA
NATIONAL WEATHER SERVICE INDIANAPOLIS IN
700 PM EST TUE DEC 06 2016

NOTE: "FAIR" INDICATES FEW OR NO CLOUDS BELOW 12,000 FEET WITH NO
SIGNIFICANT WEATHER AND/OR OBSTRUCTIONS TO VISIBILITY.

* - STATION DOES NOT REPORT WEATHER SUCH AS PRECIPITATION OR FOG.

+ - STATION NOT QUALITY CONTROLLED BY THE NATIONAL WEATHER SERVICE.
    USE DATA WITH CAUTION...ESPECIALLY DEWPOINT AND RELATIVE
    HUMIDITY OBSERVATIONS.

INZ001>003-010>013-019-020-070100-
NORTHWEST INDIANA

CITY           SKY/WX    TMP DP  RH WIND       PRES   REMARKS
GARY /AIRPORT/ PTCLDY    34  28  80 W20       29.89  WCI  22
KNOX *+        MOCLDY    34  19  55 W10       29.87R WCI  26
LA PORTE +     PTCLDY    36  36 100 W9        29.86R
6HR MIN TEMP:  36; 6HR MAX TEMP:  38;

MICHIGAN CITY+ PTCLDY    36  30  80 W12G20    29.86R
MONTICELLO +   CLOUDY    35  29  79 W10G17    29.90R WCI  27
6HR MIN TEMP:  33; 6HR MAX TEMP:  39;

RENSSELAER +   CLOUDY    34  32  93 W14       29.91R WCI  24
VALPARAISO     PTCLDY    34  29  82 W12       29.87R WCI  25
6HR MIN TEMP:  34; 6HR MAX TEMP:  38;


$$

LMZ046-743>745-070100-
SOUTHERN LAKE MICHIGAN

STATION/POSITION TIME  TEMP    WIND        PRES    WAVE
                       AIR SEA DIR/SP/G            HT
                 (UTC) (F)     (DEG/KT/KT) (MB)    (FT)
BURNS HARBOR     2340   37     260/ 19/ 24 1011.9R
MICHIGAN CITY    2340   37     230/ 24/ 26   N/A

$$

INZ004-005-014>016-021>024-070100-
NORTH CENTRAL INDIANA

CITY           SKY/WX    TMP DP  RH WIND       PRES   REMARKS
ELKHART        MOCLDY    37  32  81 W10       29.82R
GOSHEN         CLOUDY    36  31  82 W12       29.83R HAZE
LOGANSPORT +   CLOUDY    34  32  93 W12G18    29.90R WCI  25
ROCHESTER +    CLOUDY    36  34  93 W12       29.87R
SOUTH BEND     CLOUDY    36  32  85 W10       29.84R
6HR MIN TEMP:  35; 6HR MAX TEMP:  40;

WARSAW +       PTCLDY    34  30  86 W12       29.84R HAZE    WCI  25

$$

INZ006>009-017-018-025>027-070100-
NORTHEAST INDIANA

CITY           SKY/WX    TMP DP  RH WIND       PRES   REMARKS
ANGOLA *+      MOCLDY    37  34  87 VRB7      29.78S
AUBURN +       MOCLDY    37  32  81 W10G18    29.81S
FORT WAYNE     CLOUDY    37  32  82 W14G26    29.83R
6HR MIN TEMP:  35; 6HR MAX TEMP:  39;

HUNTINGTON +   MOCLDY    34  32  91 W8        29.85R WCI  28
6HR MIN TEMP:  34; 6HR MAX TEMP:  39;

KENDALLVILLE + MOCLDY    36  32  87 W12       29.80R FOG

$$

INZ028-029-035-036-043>045-051>053-070100-
WEST CENTRAL INDIANA

CITY           SKY/WX    TMP DP  RH WIND       PRES   REMARKS
CRAWFORDSVL +  MOCLDY    34  34 100 W10       29.93R WCI  26
6HR MIN TEMP:  33; 6HR MAX TEMP:  39;

LAFAYETTE      CLOUDY    34  31  88 W9        29.93R WCI  27
6HR MIN TEMP:  34; 6HR MAX TEMP:  40;

TERRE HAUTE    CLOUDY    39  32  76 NW10G20   29.97R
6HR MIN TEMP:  37; 6HR MAX TEMP:  42;


$$

INZ030>032-037>040-046>048-054>057-064-065-070100-
CENTRAL INDIANA

CITY           SKY/WX    TMP DP  RH WIND       PRES   REMARKS
COLUMBUS       CLOUDY    37  36  93 NW18G28   29.94
FRANKFORT +    CLOUDY    38  34  86 NW16      29.92R
6HR MIN TEMP:  37; 6HR MAX TEMP:  43;

GREENWOOD *+   CLOUDY    37  33  83 NW10G24   29.93R
6HR MIN TEMP:  37; 6HR MAX TEMP:  43;

INDIANAPOLIS   CLOUDY    37  32  82 W13       29.93R
6HR MIN TEMP:  36; 6HR MAX TEMP:  43;

-EAGLE CREEK   CLOUDY    37  32  82 NW15      29.92R
6HR MIN TEMP:  36; 6HR MAX TEMP:  43;

KOKOMO +       CLOUDY    36  32  87 W14       29.90R
6HR MIN TEMP:  34; 6HR MAX TEMP:  40;

MARION +       CLOUDY    34  32  94 W15       29.89R FOG     WCI  24
MT COMFORT *+  CLOUDY    36  32  87 W18G24    29.91R
SHELBYVILLE    CLOUDY    37  31  78 NW14      29.92R
6HR MIN TEMP:  37; 6HR MAX TEMP:  44;

ZIONSVILLE +   CLOUDY    34  32  92 W9        29.91R WCI  27
6HR MIN TEMP:  33; 6HR MAX TEMP:  40;


$$

INZ033-034-041-042-049-050-058-059-070100-
EAST CENTRAL INDIANA

CITY           SKY/WX    TMP DP  RH WIND       PRES   REMARKS
MUNCIE         CLOUDY    36  33  89 W13G26    29.88R
6HR MIN TEMP:  36; 6HR MAX TEMP:  41;


$$

INZ060-061-067>069-081>083-085>088-070100-
SOUTHWEST INDIANA

CITY           SKY/WX    TMP DP  RH WIND       PRES   REMARKS
EVANSVILLE     CLOUDY    40  34  79 NW8G16    30.01R
6HR MIN TEMP:  40; 6HR MAX TEMP:  46;

HUNTINGBURG *+ CLOUDY    37  34  87 NW12      30.00R
6HR MIN TEMP:  37; 6HR MAX TEMP:  45;

WASHINGTON +   CLOUDY    38  37  92 NW9       29.99R
6HR MIN TEMP:  38; 6HR MAX TEMP:  44;


$$

INZ062-063-066-070>080-084-089>092-070100-
SOUTH CENTRAL AND SOUTHEAST INDIANA

CITY           SKY/WX    TMP DP  RH WIND       PRES   REMARKS
BLOOMINGTON    CLOUDY    37  31  78 VRB5      29.96R
6HR MIN TEMP:  37; 6HR MAX TEMP:  43;

MADISON *+     CLOUDY    43  36  75 W13G18    29.93R
NORTH VERNON + CLOUDY    43  43 100 NW12G17   29.91R
SEYMOUR +      CLOUDY    41  36  81 NW15G23   29.95R

$$





USA.gov is the U.S. government's official web portal to all federal, state and local government web resources and services.